Weather History for Beale AFB, CA

Change the Weather History Date:

Saturday, September 7, 2013

  Actual Average Record
Temperature  
Mean Temperature 77 °F -  
Max Temperature 97 °F 88 °F 100 °F (2004)
Min Temperature 57 °F 60 °F 55 °F (2000)
Cooling Degree Days 12    
Growing Degree Days 27 (Base 50)    
Moisture  
Dew Point 46 °F    
Average Humidity 35    
Maximum Humidity 70    
Minimum Humidity 15    
Precipitation  
Precipitation 0.00 in - - ()
Sea Level Pressure  
Sea Level Pressure 30.04 in    
Wind  
Wind Speed 4 mph (ESE)    
Max Wind Speed 8 mph    
Max Gust Speed -    
Visibility 10 miles    
Events      
Averages and records for this station are not official NWS values.
T = Trace of Precipitation, MM = Missing Value Source: NWS Daily Summary

Daily Weather History Graph

Daily Weather History Graph

Search for Another Location

Airport:

Trip Planner

Search our weather history database for the weather conditions in past years. The results will help you decide how hot, cold, wet, or windy it might be!

Date:

Astronomy

Sep. 07, 2013 Rise Set
Actual Time 6:40 AM PDT 7:26 PM PDT
Civil Twilight 6:13 AM PDT 7:53 PM PDT
Nautical Twilight 5:40 AM PDT 8:25 PM PDT
Astronomical Twilight 5:07 AM PDT 8:58 PM PDT
Moon 8:58 AM PDT (9/7) 8:29 PM PDT (9/7)
Length of Visible Light 13h 40m
Length of Day
12h 46m
Waxing Crescent, 6% of the Moon is Illuminated
Sep 7
Waxing Crescent
Sep 12
First Quarter
Sep 19
Full
Sep 26
Last Quarter
Oct 4
New

Hourly Weather History & Observations

Time (PDT) Temp. Dew Point Humidity Pressure Visibility Wind Dir Wind Speed Gust Speed Precip Events Conditions
12:58 AM 69.1 °F 44.1 °F 40% 30.05 in 10.0 mi East 4.6 mph - N/A   Clear
1:58 AM 67.6 °F 44.4 °F 43% 30.05 in 10.0 mi East 4.6 mph - N/A   Clear
2:58 AM 63.5 °F 45.1 °F 51% 30.05 in 10.0 mi Calm Calm - N/A   Clear
3:58 AM 63.9 °F 45.1 °F 51% 30.04 in 10.0 mi East 3.5 mph - N/A   Clear
4:58 AM 61.0 °F 44.1 °F 54% 30.04 in 10.0 mi Calm Calm - N/A   Clear
5:58 AM 57.4 °F 45.9 °F 65% 30.05 in 10.0 mi West 4.6 mph - N/A   Clear
6:58 AM 59.7 °F 50.0 °F 70% 30.06 in 10.0 mi Calm Calm - N/A   Clear
7:58 AM 65.3 °F 50.0 °F 58% 30.08 in 10.0 mi Calm Calm - N/A   Clear
8:58 AM 74.8 °F 47.7 °F 38% 30.08 in 10.0 mi SE 2.3 mph - N/A   Clear
9:58 AM 82.9 °F 46.0 °F 27% 30.09 in 10.0 mi Variable 2.3 mph - N/A   Clear
10:58 AM 85.3 °F 49.1 °F 28% 30.09 in 10.0 mi WSW 3.5 mph - N/A   Clear
11:58 AM 89.6 °F 48.0 °F 24% 30.07 in 8.0 mi Variable 4.6 mph - N/A   Clear
12:58 PM 91.0 °F 50.7 °F 25% 30.06 in 8.0 mi Variable 3.5 mph - N/A   Clear
1:58 PM 94.6 °F 42.3 °F 16% 30.04 in 10.0 mi SW 8.1 mph - N/A   Clear
2:58 PM 95.9 °F 45.7 °F 18% 30.02 in 10.0 mi SW 8.1 mph - N/A   Clear
3:58 PM 97.0 °F 41.4 °F 15% 30.01 in 10.0 mi Variable 5.8 mph - N/A   Clear
4:58 PM 96.1 °F 43.7 °F 16% 30.00 in 10.0 mi Variable 2.3 mph - N/A   Clear
5:58 PM 95.2 °F 44.6 °F 18% 29.99 in 10.0 mi NNW 4.6 mph - N/A   Clear
6:58 PM 91.9 °F 43.9 °F 19% 29.98 in 10.0 mi SE 5.8 mph - N/A   Clear
7:58 PM 78.8 °F 51.8 °F 39% 29.99 in 10.0 mi SW 4.6 mph - N/A   Clear
8:58 PM 78.3 °F 45.1 °F 31% 30.00 in 10.0 mi East 4.6 mph - N/A   Clear
9:58 PM 73.9 °F 43.5 °F 34% 30.02 in 10.0 mi NE 4.6 mph - N/A   Clear
10:58 PM 74.8 °F 44.6 °F 34% 30.02 in 10.0 mi ENE 4.6 mph - N/A   Clear
11:58 PM 75.9 °F 46.4 °F 35% 30.02 in 10.0 mi ENE 4.6 mph - N/A   Clear